Weather History for KAFJ - December, 2012

Change the Weather History Date:

Tuesday, December 18, 2012

  Actual Average Record
Temperature  
Mean Temperature 40 °F -  
Max Temperature 46 °F 37 °F 62 °F (2006)
Min Temperature 33 °F 22 °F 12 °F (2000)
Degree Days  
Heating Degree Days 26    
Moisture  
Dew Point 35 °F    
Average Humidity 82    
Maximum Humidity 93    
Minimum Humidity 65    
Precipitation  
Precipitation 0.00 in - - ()
Sea Level Pressure  
Sea Level Pressure 29.71 in    
Wind  
Wind Speed 8 mph (WSW)    
Max Wind Speed 14 mph    
Max Gust Speed 21 mph    
Visibility 10 miles    
Events      
Averages and records for this station are not official NWS values.
T = Trace of Precipitation, MM = Missing Value Source: NWS Daily Summary

Daily Weather History Graph

Daily Weather History Graph

Search for Another Location

Airport or City:

Trip Planner

Search our weather history database for the weather conditions in past years. The results will help you decide how hot, cold, wet, or windy it might be!

Date:

Astronomy

Dec. 18, 2012 Rise Set
Actual Time 7:38 AM EST 4:57 PM EST
Civil Twilight 7:07 AM EST 5:28 PM EST
Nautical Twilight 6:33 AM EST 6:02 PM EST
Astronomical Twilight 6:00 AM EST 6:35 PM EST
Moon 11:17 AM EST (12/18) 11:22 PM EST (12/18)
Length of Visible Light 10h 20m
Length of Day
9h 19m
Waxing Crescent, 34% of the Moon is Illuminated
Dec 18
Waxing Crescent
Dec 20
First Quarter
Dec 28
Full
Jan 4
Last Quarter
Jan 11
New

Hourly Weather History & Observations

Time (EST) Temp. Windchill Dew Point Humidity Pressure Visibility Wind Dir Wind Speed Gust Speed Precip Events Conditions
12:15 AM 46.4 °F 44.3 °F 44.6 °F 93% 29.53 in 5.0 mi SW 4.6 mph - N/A   Mostly Cloudy
12:35 AM 46.4 °F 41.9 °F 44.6 °F 93% 29.54 in 8.0 mi SW 9.2 mph - N/A   Overcast
12:55 AM 46.4 °F 42.9 °F 44.6 °F 93% 29.53 in 10.0 mi SW 6.9 mph - N/A   Overcast
1:15 AM 46.4 °F 42.9 °F 44.6 °F 93% 29.53 in 10.0 mi SW 6.9 mph - N/A   Overcast
1:35 AM 46.4 °F 42.4 °F 42.8 °F 87% 29.53 in 10.0 mi SSW 8.1 mph - N/A   Overcast
1:55 AM 46.4 °F 42.4 °F 42.8 °F 87% 29.53 in 10.0 mi SW 8.1 mph - N/A   Overcast
2:15 AM 46.4 °F 42.4 °F 42.8 °F 87% 29.54 in 10.0 mi SSW 8.1 mph - N/A   Overcast
2:35 AM 46.4 °F 41.1 °F 42.8 °F 87% 29.54 in 10.0 mi SW 11.5 mph 18.4 mph N/A   Overcast
2:55 AM 46.4 °F 40.7 °F 42.8 °F 87% 29.55 in 10.0 mi WSW 12.7 mph 19.6 mph N/A   Overcast
3:15 AM 46.4 °F 41.5 °F 42.8 °F 87% 29.55 in 10.0 mi WSW 10.4 mph - N/A   Overcast
3:35 AM 46.4 °F 41.1 °F 42.8 °F 87% 29.55 in 10.0 mi WSW 11.5 mph - N/A   Overcast
3:55 AM 46.4 °F 41.9 °F 42.8 °F 87% 29.55 in 10.0 mi WSW 9.2 mph - N/A   Overcast
4:15 AM 46.4 °F 41.1 °F 42.8 °F 87% 29.55 in 10.0 mi WSW 11.5 mph - N/A   Overcast
4:35 AM 46.4 °F 40.7 °F 42.8 °F 87% 29.55 in 10.0 mi WSW 12.7 mph 18.4 mph N/A   Overcast
4:55 AM 44.6 °F 38.4 °F 41.0 °F 87% 29.56 in 10.0 mi WSW 12.7 mph 20.7 mph N/A   Overcast
5:15 AM 44.6 °F 38.4 °F 41.0 °F 87% 29.56 in 10.0 mi WSW 12.7 mph 19.6 mph N/A   Overcast
5:35 AM 44.6 °F 38.4 °F 42.8 °F 93% 29.56 in 7.0 mi WSW 12.7 mph - N/A   Overcast
5:55 AM 44.6 °F 39.7 °F 41.0 °F 87% 29.57 in 10.0 mi WSW 9.2 mph 17.3 mph N/A   Overcast
6:15 AM 44.6 °F 39.7 °F 41.0 °F 87% 29.58 in 10.0 mi West 9.2 mph - N/A   Overcast
6:35 AM 42.8 °F 36.6 °F 39.2 °F 87% 29.59 in 9.0 mi West 11.5 mph 19.6 mph N/A   Overcast
6:55 AM 42.8 °F 35.8 °F 39.2 °F 87% 29.61 in 10.0 mi West 13.8 mph 19.6 mph N/A   Overcast
7:15 AM 42.8 °F 36.2 °F 37.4 °F 81% 29.62 in 10.0 mi West 12.7 mph 20.7 mph N/A   Overcast
7:35 AM 41.0 °F 35.8 °F 37.4 °F 87% 29.63 in 10.0 mi West 8.1 mph - N/A   Overcast
7:55 AM 41.0 °F 34.7 °F 37.4 °F 87% 29.64 in 10.0 mi West 10.4 mph 20.7 mph N/A   Overcast
8:15 AM 39.2 °F 34.2 °F 37.4 °F 93% 29.65 in 10.0 mi WNW 6.9 mph - N/A   Overcast
8:35 AM 39.2 °F 31.2 °F 35.6 °F 87% 29.66 in 10.0 mi West 13.8 mph 18.4 mph N/A   Overcast
8:55 AM 39.2 °F 34.2 °F 33.8 °F 81% 29.67 in 10.0 mi West 6.9 mph - N/A   Overcast
9:15 AM 37.4 °F 31.4 °F 33.8 °F 87% 29.69 in 10.0 mi West 8.1 mph 17.3 mph N/A   Overcast
9:35 AM 37.4 °F 31.4 °F 35.6 °F 93% 29.70 in 10.0 mi West 8.1 mph - N/A   Mostly Cloudy
9:55 AM 37.4 °F 30.8 °F 35.6 °F 93% 29.71 in 10.0 mi West 9.2 mph - N/A   Overcast
10:15 AM 37.4 °F 31.4 °F 33.8 °F 87% 29.73 in 10.0 mi West 8.1 mph - N/A   Overcast
10:35 AM 37.4 °F 30.3 °F 33.8 °F 87% 29.74 in 10.0 mi West 10.4 mph 18.4 mph N/A   Overcast
10:55 AM 37.4 °F 30.8 °F 33.8 °F 87% 29.75 in 10.0 mi West 9.2 mph 17.3 mph N/A   Overcast
11:15 AM 37.4 °F 29.3 °F 33.8 °F 87% 29.75 in 10.0 mi WNW 12.7 mph 16.1 mph N/A   Overcast
11:35 AM 37.4 °F 30.8 °F 33.8 °F 87% 29.75 in 10.0 mi West 9.2 mph - N/A   Overcast
11:55 AM 37.4 °F 31.4 °F 33.8 °F 87% 29.75 in 10.0 mi West 8.1 mph - N/A   Overcast
12:15 PM 37.4 °F 29.8 °F 33.8 °F 87% 29.76 in 10.0 mi West 11.5 mph 18.4 mph N/A   Overcast
12:35 PM 39.2 °F 32.5 °F 33.8 °F 81% 29.76 in 10.0 mi West 10.4 mph - N/A   Overcast
12:55 PM 39.2 °F 35.0 °F 33.8 °F 81% 29.75 in 10.0 mi West 5.8 mph - N/A   Overcast
1:15 PM 39.2 °F 33.6 °F 33.8 °F 81% 29.76 in 10.0 mi West 8.1 mph - N/A   Overcast
1:35 PM 39.2 °F 33.0 °F 33.8 °F 81% 29.76 in 10.0 mi West 9.2 mph - N/A   Overcast
1:55 PM 39.2 °F 32.0 °F 32.0 °F 75% 29.77 in 10.0 mi West 11.5 mph 17.3 mph N/A   Overcast
2:15 PM 39.2 °F 32.0 °F 30.2 °F 70% 29.77 in 10.0 mi West 11.5 mph 18.4 mph N/A   Mostly Cloudy
2:35 PM 39.2 °F 32.0 °F 30.2 °F 70% 29.77 in 10.0 mi West 11.5 mph 17.3 mph N/A   Mostly Cloudy
2:55 PM 41.0 °F 34.3 °F 30.2 °F 65% 29.78 in 10.0 mi WSW 11.5 mph 19.6 mph N/A   Overcast
3:15 PM 39.2 °F 32.5 °F 28.4 °F 65% 29.78 in 10.0 mi WSW 10.4 mph - N/A   Overcast
3:35 PM 39.2 °F 32.0 °F 28.4 °F 65% 29.78 in 10.0 mi West 11.5 mph - N/A   Scattered Clouds
3:55 PM 39.2 °F 31.2 °F 28.4 °F 65% 29.78 in 10.0 mi WSW 13.8 mph 19.6 mph N/A   Partly Cloudy
4:15 PM 39.2 °F 32.5 °F 28.4 °F 65% 29.79 in 10.0 mi WSW 10.4 mph 16.1 mph N/A   Partly Cloudy
4:35 PM 39.2 °F 32.5 °F 28.4 °F 65% 29.80 in 10.0 mi WSW 10.4 mph 17.3 mph N/A   Partly Cloudy
4:55 PM 37.4 °F 30.3 °F 28.4 °F 70% 29.81 in 10.0 mi WSW 10.4 mph 19.6 mph N/A   Partly Cloudy
5:15 PM 37.4 °F 30.8 °F 28.4 °F 70% 29.80 in 10.0 mi SW 9.2 mph - N/A   Partly Cloudy
5:35 PM 37.4 °F 31.4 °F 28.4 °F 70% 29.81 in 10.0 mi SW 8.1 mph - N/A   Mostly Cloudy
5:55 PM 35.6 °F 29.9 °F 28.4 °F 75% 29.81 in 10.0 mi SW 6.9 mph - N/A   Partly Cloudy
6:15 PM 35.6 °F 30.7 °F 28.4 °F 75% 29.82 in 10.0 mi SSW 5.8 mph - N/A   Clear
6:35 PM 35.6 °F 30.7 °F 28.4 °F 75% 29.82 in 10.0 mi SW 5.8 mph - N/A   Clear
6:55 PM 35.6 °F 29.9 °F 28.4 °F 75% 29.82 in 10.0 mi SW 6.9 mph - N/A   Clear
7:15 PM 35.6 °F 30.7 °F 28.4 °F 75% 29.83 in 10.0 mi SW 5.8 mph - N/A   Clear
7:35 PM 35.6 °F 32.8 °F 28.4 °F 75% 29.82 in 10.0 mi SSW 3.5 mph - N/A   Clear
7:55 PM 35.6 °F 32.8 °F 28.4 °F 75% 29.82 in 10.0 mi SSE 3.5 mph - N/A   Mostly Cloudy
8:15 PM 35.6 °F 32.8 °F 28.4 °F 75% 29.80 in 10.0 mi SSE 3.5 mph - N/A   Mostly Cloudy
8:35 PM 33.8 °F - 28.4 °F 81% 29.82 in 10.0 mi Calm Calm - N/A   Mostly Cloudy
8:55 PM 33.8 °F 29.6 °F 30.2 °F 87% 29.82 in 10.0 mi SSW 4.6 mph - N/A   Mostly Cloudy
9:15 PM 33.8 °F - 30.2 °F 87% 29.82 in 10.0 mi Calm Calm - N/A   Mostly Cloudy
9:35 PM 33.8 °F 30.8 °F 28.4 °F 81% 29.83 in 10.0 mi SSW 3.5 mph - N/A   Overcast
9:55 PM 33.8 °F - 30.2 °F 87% 29.83 in 10.0 mi Calm Calm - N/A   Mostly Cloudy
10:15 PM 33.8 °F - 30.2 °F 87% 29.84 in 10.0 mi Calm Calm - N/A   Overcast
10:35 PM 33.8 °F - 30.2 °F 87% 29.84 in 10.0 mi Calm Calm - N/A   Overcast
10:55 PM 35.6 °F 32.8 °F 30.2 °F 81% 29.83 in 10.0 mi SSW 3.5 mph - N/A   Overcast
11:15 PM 35.6 °F 30.7 °F 32.0 °F 87% 29.83 in 10.0 mi SSW 5.8 mph - N/A   Overcast
11:35 PM 35.6 °F 32.8 °F 32.0 °F 87% 29.82 in 10.0 mi SSW 3.5 mph - N/A   Overcast
11:55 PM 35.6 °F 30.7 °F 33.8 °F 93% 29.81 in 10.0 mi SW 5.8 mph - N/A   Overcast